User: anonymous   Login
Location: 東京駅
(35.6813°N, 139.7662°E)
Time: 10:52:39
(UTC+09:00)
Language:

Tiangong 1 - Orbit

View from above orbital plane
View from above orbital plane
View from above satellite
View from above satellite

Ground track
Ground track

The orbit data is extracted from the following two-line orbital elements,

1 37820U 11053A   17325.74084491  .00057741  94918-5  17145-3 0  9996
2 37820  42.7550 307.4772 0017873 129.8407 239.0733 15.92100664352968
Epoch (UTC): 21 November 2017 17:46:49
Eccentricity: 0.0017873
inclination: 42.7550°
perigee height: 284 km
apogee height: 308 km
right ascension of ascending node: 307.4772°
argument of perigee: 129.8407°
revolutions per day: 15.92100664
mean anomaly at epoch: 239.0733°
orbit number at epoch: 35296

The dashed part of the orbit path shows where the satellite is in the earth's shadow,  

DLR